ECHOSTAR 10

Last updated on Sat Sep 05 2026 00:03:01 GMT+0000 (Coordinated Universal Time)

1 28935U 06003A 26247.58079844 -.00000062 00000+0 00000+0 0 9999 2 28935 0.0598 293.0249 0002393 188.6434 320.9518 1.00270667 75257
UTC large
Height (km)
Speed (km/s)
/
Latitude / Longitude
Inclination (degrees)
Orbital Period (minutes)
Azimuth
Elevation
Range (km)
Doppler Factor

Next 0 passes for location: London (51.5072 / 0.1276)

No passes found over London.
ECHOSTAR 10